"Pseudo-MPEC" for P22fUZw

Created 2025 Oct 18 1:35:16 UT using Find_Orb

Click here for an explanation of pseudo-MPECs

 
 Astrometry: 
     P22fUZw* C2025 09 29.45970301 51 53.272-21 36 22.61   ~9TL5 22.48wXNEOCPF52
     P22fUZw  C2025 09 29.47078201 51 52.226-21 36 22.83   ~9TL5 22.27wXNEOCPF52
     P22fUZw  C2025 09 29.48180801 51 51.208-21 36 23.05   ~9TL5 22.40wXNEOCPF52
     P22fUZw  C2025 09 29.49295001 51 50.162-21 36 23.57   ~9TL5 22.39wXNEOCPF52
     P22fUZw KC2025 10 01.32446301 49 02.701-21 36 35.75   ~A18Z 22.12GVNEOCPV06
     P22fUZw KC2025 10 01.32923101 49 02.244-21 36 35.78   ~A18Z 22.26GVNEOCPV06
     P22fUZw KC2025 10 01.33399801 49 01.812-21 36 35.53   ~A18Z 22.78GVNEOCPV06
     P22fUZw KC2025 10 01.33876201 49 01.319-21 36 35.93   ~A18Z 22.52GVNEOCPV06

Station data:
(F52) Pan-STARRS 2, Haleakala  (N20.707382 W156.255910)  US/Hawaii.
   Observers J. Herman, T. Lowe, P. Minguez, A. Schultz, I. Smith. Measurers
   K. Chambers, T. de Boer, J. Fairlamb, H. Gao, M. Huber, C.-C. Lin, E.
   Magnier, Y. Ramanjooloo, R. Wainscoat, R. Weryk. 1.8-m Ritchey-Chrétien +
   CCD.
(V06) Catalina Sky Survey-Kuiper  (N32.416871 W110.732550)  US/Arizona.
   Measurers T. Beuden, V. F. Carvajal, D. Fay, J. B. Fazekas, D. C. Fuls, A.
   R. Gibbs, A. D. Grauer, H. Gröller, J. K. Hogan, R. A. Kowalski, S. M.
   Larson, G. J. Leonard, D. Rankin, R. L. Seaman, F. C. Shelly, K. W.
   Wierzchoś. 1.55-m reflector + CCD.

Orbital elements:  P22fUZw
   Perihelion 2025 Feb 27.675565 +/- 336 TT = 16:12:48.8 (JD 2460734.175565)
Epoch 2025 Oct  1.0 TT = JDT 2460949.5   Earth MOID: 0.2352      AutoNEOCP
M  53.583786215 +/- 90              (J2000 ecliptic)
n   0.248851396 +/- 0.112           Peri.  201.580818 +/- 59
a   2.503279414 +/- 0.753           Node    53.831708 +/- 15
e   0.51025328 +/- 0.215            Incl.   26.312560 +/- 17
P   3.96063                H 19.10  G  0.15   U 11.3  SR
q 1.225972869 +/- 0.432    Q 3.780585958 +/- 2.69
From 8 observations 2025 Sept. 29-Oct. 1 (45.1 hr); mean residual 0".15
Residuals in arcseconds: 
250929 F52  .02+  .01-    250929 F52  .02+  .15-    251001 V06  .25+  .20+    
250929 F52  .12-  .05+    251001 V06  .11+  .06+    251001 V06  .36-  .25-    
250929 F52  .07+  .11+    251001 V06  .00   .01-    

Ephemerides (geocentric):
Date (UTC) HH   RA             Dec           delta  r     elong  mag " sig PA
---- --------  ------------   ------------  ------ ------ -----  --- --------
2025 10 18 02  01 23 32.591   -20 48 21.24  1.5249 2.4371 149.6 22.7 3574  66
2025 10 18 03  01 23 28.999   -20 48 07.38  1.5252 2.4373 149.6 22.7 3592  66
2025 10 18 04  01 23 25.409   -20 47 53.50  1.5255 2.4376 149.6 22.7 3610  66
2025 10 18 05  01 23 21.820   -20 47 39.58  1.5259 2.4378 149.6 22.7 3628  66
2025 10 18 06  01 23 18.234   -20 47 25.63  1.5262 2.4380 149.5 22.7 3646  66
2025 10 18 07  01 23 14.649   -20 47 11.65  1.5266 2.4383 149.5 22.7 3664  66
2025 10 18 08  01 23 11.067   -20 46 57.64  1.5269 2.4385 149.5 22.7 3682  66
2025 10 18 09  01 23 07.486   -20 46 43.59  1.5272 2.4387 149.5 22.7 3701  66
2025 10 18 10  01 23 03.907   -20 46 29.52  1.5276 2.4390 149.5 22.7 3719  66
2025 10 18 11  01 23 00.330   -20 46 15.41  1.5279 2.4392 149.5 22.7 3737  66
2025 10 18 12  01 22 56.755   -20 46 01.27  1.5282 2.4394 149.5 22.7 3756  66
2025 10 18 13  01 22 53.182   -20 45 47.10  1.5286 2.4397 149.4 22.7 3774  66
2025 10 18 14  01 22 49.612   -20 45 32.90  1.5289 2.4399 149.4 22.7 3793  66
2025 10 18 15  01 22 46.043   -20 45 18.67  1.5293 2.4402 149.4 22.7 3811  66
2025 10 18 16  01 22 42.476   -20 45 04.41  1.5296 2.4404 149.4 22.7 3830  66
2025 10 18 17  01 22 38.911   -20 44 50.11  1.5300 2.4406 149.4 22.7 3848  66
2025 10 18 18  01 22 35.347   -20 44 35.79  1.5303 2.4409 149.4 22.7 3867  66
2025 10 18 19  01 22 31.786   -20 44 21.43  1.5306 2.4411 149.3 22.7 3886  66
2025 10 18 20  01 22 28.227   -20 44 07.04  1.5310 2.4413 149.3 22.7 3904  66
2025 10 18 21  01 22 24.670   -20 43 52.62  1.5313 2.4416 149.3 22.7 3923  66
2025 10 18 22  01 22 21.115   -20 43 38.17  1.5317 2.4418 149.3 22.7 3942  66
2025 10 18 23  01 22 17.562   -20 43 23.69  1.5320 2.4421 149.3 22.7 3961  66
2025 10 19 00  01 22 14.011   -20 43 09.18  1.5324 2.4423 149.3 22.7 3980  66
2025 10 19 01  01 22 10.462   -20 42 54.63  1.5327 2.4425 149.3 22.7 3999  65
2025 10 19 02  01 22 06.915   -20 42 40.06  1.5331 2.4428 149.2 22.7 4018  65
2025 10 19 03  01 22 03.371   -20 42 25.45  1.5334 2.4430 149.2 22.7 4037  65
2025 10 19 04  01 21 59.828   -20 42 10.81  1.5337 2.4432 149.2 22.7 4056  65
2025 10 19 05  01 21 56.287   -20 41 56.14  1.5341 2.4435 149.2 22.7 4075  65
2025 10 19 06  01 21 52.748   -20 41 41.44  1.5344 2.4437 149.2 22.7 4095  65
2025 10 19 07  01 21 49.211   -20 41 26.71  1.5348 2.4439 149.2 22.7 4114  65
2025 10 19 08  01 21 45.677   -20 41 11.95  1.5351 2.4442 149.1 22.7 4133  65
2025 10 19 09  01 21 42.144   -20 40 57.16  1.5355 2.4444 149.1 22.7 4153  65
2025 10 19 10  01 21 38.614   -20 40 42.34  1.5358 2.4447 149.1 22.7 4172  65
2025 10 19 11  01 21 35.085   -20 40 27.48  1.5362 2.4449 149.1 22.7 4191  65
2025 10 19 12  01 21 31.559   -20 40 12.60  1.5365 2.4451 149.1 22.7 4211  65
2025 10 19 13  01 21 28.035   -20 39 57.68  1.5369 2.4454 149.1 22.7 4231  65
2025 10 19 14  01 21 24.513   -20 39 42.73  1.5372 2.4456 149.0 22.7 4250  65
2025 10 19 15  01 21 20.993   -20 39 27.76  1.5376 2.4458 149.0 22.7 4270  65
2025 10 19 16  01 21 17.475   -20 39 12.75  1.5380 2.4461 149.0 22.7 4290  65
2025 10 19 17  01 21 13.959   -20 38 57.71  1.5383 2.4463 149.0 22.7 4309  65
2025 10 19 18  01 21 10.445   -20 38 42.64  1.5387 2.4465 149.0 22.7 4329  65
2025 10 19 19  01 21 06.933   -20 38 27.54  1.5390 2.4468 148.9 22.7 4349  65
2025 10 19 20  01 21 03.424   -20 38 12.41  1.5394 2.4470 148.9 22.7 4369  65
2025 10 19 21  01 20 59.917   -20 37 57.24  1.5397 2.4473 148.9 22.7 4389  65
2025 10 19 22  01 20 56.412   -20 37 42.05  1.5401 2.4475 148.9 22.7 4409  65
2025 10 19 23  01 20 52.909   -20 37 26.83  1.5404 2.4477 148.9 22.7 4429  65
2025 10 20 00  01 20 49.408   -20 37 11.57  1.5408 2.4480 148.9 22.7 4449  65
2025 10 20 01  01 20 45.909   -20 36 56.29  1.5411 2.4482 148.8 22.7 4469  65